| time (UTC) | temp F | wind direction | speed knots | gust knots | rain 1hr in | rain 24hr in | rain mn in | humidity % | barometer mb |
| 20260509112840 | 69 | 249 | 0.0 | 0.0 | 0.00 | 0.00 | 0.00 | 85 | 1009.1 |
| 20260509112337 | 69 | 200 | 0.9 | 1.7 | 0.00 | 0.00 | 0.00 | 86 | 1009.0 |
| 20260509111834 | 69 | 163 | 0.9 | 0.0 | 0.00 | 0.00 | 0.00 | 88 | 1008.9 |
| 20260509111331 | 69 | 204 | 0.0 | 0.0 | 0.00 | 0.00 | 0.00 | 89 | 1008.5 |
| 20260509110829 | 70 | 208 | 1.7 | 1.7 | 0.00 | 0.00 | 0.00 | 89 | 1008.5 |
| 20260509110324 | 70 | 187 | 0.0 | 0.9 | 0.00 | 0.00 | 0.00 | 88 | 1008.1 |
| 20260509105823 | 70 | 220 | 0.0 | 0.9 | 0.00 | 0.00 | 0.00 | 89 | 1008.2 |
| 20260509105321 | 70 | 207 | 0.0 | 0.0 | 0.00 | 0.00 | 0.00 | 89 | 1008.1 |
| 20260509104817 | 70 | 202 | 0.0 | 2.6 | 0.00 | 0.00 | 0.00 | 90 | 1008.3 |
| 20260509104314 | 70 | 191 | 0.0 | 1.7 | 0.00 | 0.00 | 0.00 | 90 | 1008.2 |
| 20260509103812 | 69 | 160 | 0.0 | 0.9 | 0.00 | 0.00 | 0.00 | 91 | 1007.9 |
| 20260509103309 | 69 | 160 | 0.9 | 0.9 | 0.00 | 0.00 | 0.00 | 91 | 1008.1 |
| 20260509102807 | 69 | 160 | 0.9 | 0.9 | 0.00 | 0.00 | 0.00 | 91 | 1008.0 |
| 20260509102306 | 69 | 160 | 0.0 | 0.0 | 0.00 | 0.00 | 0.00 | 91 | 1007.8 |
| 20260509101800 | 69 | 160 | 0.0 | 0.9 | 0.00 | 0.00 | 0.00 | 90 | 1007.9 |
| 20260509101256 | 70 | 170 | 0.0 | 0.9 | 0.00 | 0.00 | 0.00 | 90 | 1007.9 |
| 20260509100754 | 70 | 170 | 1.7 | 0.9 | 0.00 | 0.00 | 0.00 | 90 | 1007.9 |
| 20260509100251 | 70 | 170 | 0.0 | 0.0 | 0.00 | 0.00 | 0.00 | 90 | 1007.9 |
| 20260509095747 | 70 | 170 | 0.0 | 0.0 | 0.00 | 0.00 | 0.00 | 90 | 1008.0 |
| 20260509095245 | 70 | 170 | 0.9 | 0.9 | 0.00 | 0.00 | 0.00 | 89 | 1007.6 |
| 20260509094742 | 70 | 170 | 0.9 | 0.9 | 0.00 | 0.00 | 0.00 | 89 | 1007.5 |
| 20260509094239 | 70 | 170 | 0.0 | 0.0 | 0.00 | 0.00 | 0.00 | 89 | 1007.7 |
| 20260509093737 | 71 | 170 | 0.0 | 0.9 | 0.00 | 0.00 | 0.00 | 89 | 1007.6 |
| 20260509093234 | 71 | 157 | 1.7 | 3.5 | 0.00 | 0.00 | 0.00 | 88 | 1007.5 |
| 20260509092732 | 71 | 180 | 0.9 | 0.9 | 0.00 | 0.00 | 0.00 | 88 | 1007.5 |
| 20260509092230 | 71 | 150 | 1.7 | 1.7 | 0.00 | 0.00 | 0.00 | 88 | 1007.5 |
| 20260509091728 | 71 | 269 | 0.0 | 1.7 | 0.00 | 0.00 | 0.00 | 88 | 1007.8 |
| 20260509091223 | 71 | 282 | 0.9 | 1.7 | 0.00 | 0.00 | 0.00 | 88 | 1007.9 |
| 20260509090721 | 71 | 233 | 0.0 | 0.9 | 0.00 | 0.00 | 0.00 | 87 | 1007.9 |
| 20260509090218 | 71 | 208 | 0.0 | 3.5 | 0.00 | 0.00 | 0.00 | 87 | 1007.3 |
| 20260509085716 | 71 | 167 | 2.6 | 3.5 | 0.00 | 0.00 | 0.00 | 87 | 1006.6 |
| 20260509085213 | 71 | 133 | 2.6 | 7.8 | 0.00 | 0.00 | 0.00 | 87 | 1006.4 |
| 20260509084709 | 71 | 152 | 5.2 | 7.0 | 0.00 | 0.00 | 0.00 | 87 | 1005.9 |
| 20260509084206 | 71 | 181 | 3.5 | 7.0 | 0.00 | 0.00 | 0.00 | 87 | 1005.9 |
| 20260509083704 | 71 | 179 | 5.2 | 7.8 | 0.00 | 0.00 | 0.00 | 87 | 1005.7 |
| 20260509083200 | 71 | 178 | 3.5 | 7.0 | 0.00 | 0.00 | 0.00 | 87 | 1006.1 |
| 20260509082657 | 71 | 195 | 3.5 | 7.8 | 0.00 | 0.00 | 0.00 | 86 | 1006.4 |
| 20260509082154 | 71 | 131 | 3.5 | 8.7 | 0.00 | 0.00 | 0.00 | 86 | 1006.7 |
| 20260509081651 | 71 | 191 | 4.3 | 7.0 | 0.00 | 0.00 | 0.00 | 86 | 1006.8 |
| 20260509081148 | 71 | 182 | 5.2 | 7.0 | 0.00 | 0.00 | 0.00 | 86 | 1007.2 |
| 20260509080646 | 71 | 160 | 5.2 | 7.0 | 0.00 | 0.00 | 0.00 | 86 | 1007.4 |
| 20260509080144 | 71 | 164 | 3.5 | 7.8 | 0.00 | 0.00 | 0.00 | 86 | 1007.4 |
| 20260509075642 | 71 | 180 | 2.6 | 6.1 | 0.00 | 0.00 | 0.00 | 86 | 1008.0 |
| 20260509075139 | 71 | 176 | 2.6 | 3.5 | 0.00 | 0.00 | 0.00 | 86 | 1008.2 |
| 20260509074636 | 71 | 219 | 3.5 | 6.1 | 0.00 | 0.00 | 0.00 | 86 | 1008.8 |
| 20260509074132 | 71 | 145 | 4.3 | 6.1 | 0.00 | 0.00 | 0.00 | 86 | 1008.5 |
| 20260509073629 | 71 | 179 | 2.6 | 6.1 | 0.00 | 0.00 | 0.00 | 85 | 1008.5 |
| 20260509073125 | 71 | 199 | 1.7 | 3.5 | 0.00 | 0.00 | 0.00 | 86 | 1009.1 |
| 20260509072622 | 71 | 182 | 1.7 | 3.5 | 0.00 | 0.00 | 0.00 | 86 | 1009.3 |
| 20260509072119 | 71 | 169 | 3.5 | 3.5 | 0.00 | 0.00 | 0.00 | 86 | 1009.5 |
| 20260509071616 | 71 | 177 | 1.7 | 3.5 | 0.00 | 0.00 | 0.00 | 86 | 1009.6 |
| 20260509071113 | 71 | 178 | 1.7 | 3.5 | 0.00 | 0.00 | 0.00 | 86 | 1009.6 |
| 20260509070610 | 71 | 201 | 2.6 | 3.5 | 0.00 | 0.00 | 0.00 | 86 | 1009.8 |
| 20260509070106 | 71 | 139 | 2.6 | 3.5 | 0.00 | 0.00 | 0.00 | 85 | 1010.0 |
| 20260509065602 | 71 | 189 | 2.6 | 2.6 | 0.00 | 0.00 | 0.00 | 85 | 1010.0 |
| 20260509065058 | 71 | 222 | 0.9 | 1.7 | 0.00 | 0.00 | 0.00 | 85 | 1010.3 |
| 20260509064556 | 71 | 204 | 0.0 | 1.7 | 0.00 | 0.00 | 0.00 | 85 | 1010.0 |
| 20260509064054 | 71 | 221 | 0.0 | 1.7 | 0.00 | 0.00 | 0.00 | 85 | 1009.9 |
| 20260509063549 | 71 | 208 | 0.9 | 0.9 | 0.00 | 0.00 | 0.00 | 85 | 1010.0 |
| 20260509063047 | 71 | 220 | 1.7 | 2.6 | 0.00 | 0.00 | 0.00 | 85 | 1009.9 |
| 20260509062544 | 71 | 204 | 0.9 | 2.6 | 0.00 | 0.00 | 0.00 | 85 | 1009.6 |
| 20260509062041 | 71 | 194 | 1.7 | 2.6 | 0.00 | 0.00 | 0.00 | 85 | 1009.4 |
| 20260509061538 | 71 | 167 | 2.6 | 2.6 | 0.00 | 0.00 | 0.00 | 85 | 1009.7 |
| 20260509061035 | 71 | 204 | 0.9 | 2.6 | 0.00 | 0.00 | 0.00 | 84 | 1009.6 |
| 20260509060533 | 71 | 198 | 0.0 | 2.6 | 0.00 | 0.00 | 0.00 | 84 | 1009.6 |
| 20260509060029 | 71 | 178 | 2.6 | 2.6 | 0.00 | 0.00 | 0.00 | 85 | 1009.7 |
| 20260509055524 | 70 | 187 | 0.9 | 1.7 | 0.00 | 0.00 | 0.00 | 85 | 1009.7 |
| 20260509055020 | 71 | 212 | 0.9 | 0.9 | 0.00 | 0.00 | 0.00 | 84 | 1010.1 |
| 20260509054517 | 71 | 213 | 0.0 | 0.0 | 0.00 | 0.00 | 0.00 | 84 | 1010.3 |
| 20260509054015 | 71 | 213 | 0.0 | 0.0 | 0.00 | 0.00 | 0.00 | 83 | 1010.5 |
| 20260509053513 | 71 | 213 | 0.0 | 0.9 | 0.00 | 0.00 | 0.00 | 83 | 1010.6 |
| 20260509053010 | 71 | 200 | 0.9 | 1.7 | 0.00 | 0.00 | 0.00 | 83 | 1010.4 |
| 20260509052508 | 72 | 222 | 0.9 | 0.9 | 0.00 | 0.00 | 0.00 | 82 | 1010.6 |
| 20260509052006 | 72 | 325 | 0.0 | 0.9 | 0.00 | 0.00 | 0.00 | 81 | 1010.7 |
| 20260509051503 | 72 | 305 | 1.7 | 2.6 | 0.00 | 0.00 | 0.00 | 81 | 1010.9 |
| 20260509051000 | 72 | 303 | 2.6 | 3.5 | 0.00 | 0.00 | 0.00 | 81 | 1011.1 |
| 20260509050456 | 72 | 322 | 2.6 | 3.5 | 0.00 | 0.00 | 0.00 | 80 | 1010.7 |
| 20260509045953 | 72 | 241 | 0.9 | 0.9 | 0.00 | 0.10 | 0.10 | 80 | 1009.8 |
| 20260509045451 | 72 | 205 | 0.9 | 2.6 | 0.00 | 0.10 | 0.10 | 80 | 1009.7 |
| 20260509044947 | 72 | 187 | 1.7 | 1.7 | 0.00 | 0.10 | 0.10 | 80 | 1009.6 |
| 20260509044445 | 73 | 220 | 1.7 | 3.5 | 0.00 | 0.10 | 0.10 | 80 | 1009.6 |
| 20260509043942 | 73 | 182 | 1.7 | 2.6 | 0.00 | 0.10 | 0.10 | 79 | 1009.4 |
| 20260509043438 | 73 | 175 | 1.7 | 3.5 | 0.00 | 0.10 | 0.10 | 79 | 1009.9 |
| 20260509042933 | 73 | 132 | 2.6 | 2.6 | 0.00 | 0.10 | 0.10 | 78 | 1009.8 |
| 20260509042431 | 73 | 197 | 0.0 | 0.9 | 0.00 | 0.10 | 0.10 | 78 | 1009.7 |
| 20260509041927 | 73 | 167 | 2.6 | 5.2 | 0.00 | 0.10 | 0.10 | 78 | 1009.4 |
| 20260509041424 | 73 | 162 | 1.7 | 2.6 | 0.00 | 0.10 | 0.10 | 78 | 1009.6 |
| 20260509040922 | 73 | 174 | 2.6 | 3.5 | 0.00 | 0.10 | 0.10 | 78 | 1009.3 |
| 20260509040420 | 73 | 189 | 2.6 | 3.5 | 0.00 | 0.10 | 0.10 | 78 | 1009.4 |
| 20260509035916 | 73 | 139 | 0.9 | 2.6 | 0.00 | 0.10 | 0.10 | 77 | 1009.3 |
| 20260509035413 | 73 | 164 | 2.6 | 2.6 | 0.00 | 0.10 | 0.10 | 77 | 1009.2 |
| 20260509034909 | 73 | 184 | 1.7 | 2.6 | 0.00 | 0.10 | 0.10 | 77 | 1009.2 |
| 20260509034408 | 74 | 161 | 1.7 | 1.7 | 0.00 | 0.10 | 0.10 | 77 | 1009.5 |
| 20260509033904 | 74 | 315 | 0.0 | 0.9 | 0.00 | 0.10 | 0.10 | 77 | 1010.2 |
| 20260509033401 | 74 | 313 | 0.0 | 0.9 | 0.00 | 0.10 | 0.10 | 77 | 1010.0 |
| 20260509032858 | 73 | 324 | 0.0 | 1.7 | 0.00 | 0.10 | 0.10 | 76 | 1010.4 |
| 20260509032355 | 73 | 265 | 0.9 | 0.9 | 0.00 | 0.10 | 0.10 | 77 | 1009.8 |
| 20260509031853 | 73 | 248 | 0.9 | 0.9 | 0.00 | 0.10 | 0.10 | 77 | 1009.9 |
| 20260509031350 | 73 | 163 | 0.0 | 0.0 | 0.00 | 0.10 | 0.10 | 77 | 1009.7 |
| 20260509030848 | 73 | 159 | 0.0 | 0.9 | 0.00 | 0.10 | 0.10 | 77 | 1009.6 |
| 20260509030345 | 73 | 159 | 0.0 | 0.9 | 0.00 | 0.10 | 0.10 | 77 | 1009.5 |
| 20260509025842 | 73 | 159 | 0.0 | 0.0 | 0.00 | 0.10 | 0.10 | 77 | 1009.6 |
| 20260509025337 | 73 | 179 | 0.0 | 0.0 | 0.00 | 0.10 | 0.10 | 77 | 1009.1 |
| 20260509024833 | 73 | 210 | 0.9 | 0.9 | 0.00 | 0.10 | 0.10 | 77 | 1009.0 |
| 20260509024330 | 73 | 187 | 0.9 | 1.7 | 0.00 | 0.10 | 0.10 | 77 | 1008.6 |
| 20260509023827 | 73 | 132 | 1.7 | 5.2 | 0.00 | 0.10 | 0.10 | 76 | 1008.5 |
| 20260509023324 | 73 | 170 | 2.6 | 6.1 | 0.00 | 0.10 | 0.10 | 76 | 1008.4 |
| 20260509022821 | 73 | 189 | 0.9 | 6.1 | 0.00 | 0.10 | 0.10 | 76 | 1008.4 |
| 20260509022318 | 73 | 141 | 3.5 | 5.2 | 0.00 | 0.10 | 0.10 | 76 | 1008.3 |
| 20260509021814 | 73 | 170 | 2.6 | 2.6 | 0.00 | 0.10 | 0.10 | 76 | 1008.1 |
| 20260509021312 | 73 | 192 | 0.9 | 3.5 | 0.00 | 0.10 | 0.10 | 76 | 1008.2 |
| 20260509020809 | 73 | 184 | 2.6 | 5.2 | 0.00 | 0.10 | 0.10 | 76 | 1007.9 |
| 20260509020307 | 74 | 183 | 2.6 | 6.1 | 0.00 | 0.10 | 0.10 | 76 | 1008.1 |
| 20260509015805 | 74 | 190 | 0.9 | 5.2 | 0.00 | 0.10 | 0.10 | 75 | 1007.8 |
| 20260509015306 | 74 | 184 | 3.5 | 7.8 | 0.00 | 0.10 | 0.10 | 75 | 1008.0 |
| 20260509014758 | 74 | 203 | 3.5 | 3.5 | 0.00 | 0.10 | 0.10 | 75 | 1007.9 |
| 20260509014256 | 74 | 179 | 1.7 | 6.1 | 0.00 | 0.10 | 0.10 | 75 | 1008.0 |
| 20260509013752 | 74 | 155 | 2.6 | 2.6 | 0.00 | 0.10 | 0.10 | 74 | 1008.2 |
| 20260509013248 | 74 | 173 | 3.5 | 5.2 | 0.00 | 0.10 | 0.10 | 74 | 1008.3 |
| 20260509012745 | 74 | 177 | 1.7 | 3.5 | 0.00 | 0.10 | 0.10 | 74 | 1007.9 |
| 20260509012242 | 74 | 194 | 1.7 | 1.7 | 0.00 | 0.10 | 0.10 | 74 | 1008.0 |
| 20260509011739 | 74 | 174 | 2.6 | 2.6 | 0.00 | 0.10 | 0.10 | 73 | 1008.1 |
| 20260509011237 | 74 | 199 | 0.9 | 1.7 | 0.00 | 0.10 | 0.10 | 73 | 1008.2 |
| 20260509010734 | 74 | 218 | 0.9 | 2.6 | 0.00 | 0.10 | 0.10 | 73 | 1007.9 |
| 20260509010231 | 74 | 163 | 1.7 | 3.5 | 0.00 | 0.10 | 0.10 | 73 | 1007.9 |
| 20260509005729 | 74 | 183 | 0.9 | 1.7 | 0.00 | 0.10 | 0.10 | 73 | 1007.8 |
| 20260509005226 | 74 | 155 | 3.5 | 3.5 | 0.00 | 0.10 | 0.10 | 73 | 1007.7 |
| 20260509004725 | 75 | 165 | 1.7 | 2.6 | 0.00 | 0.10 | 0.10 | 72 | 1007.7 |
| 20260509004223 | 74 | 177 | 3.5 | 5.2 | 0.00 | 0.10 | 0.10 | 72 | 1007.5 |
| 20260509003721 | 75 | 123 | 4.3 | 6.1 | 0.00 | 0.10 | 0.10 | 72 | 1007.6 |
| 20260509003219 | 75 | 181 | 2.6 | 8.7 | 0.00 | 0.10 | 0.10 | 72 | 1007.5 |
| 20260509002715 | 75 | 142 | 1.7 | 5.2 | 0.00 | 0.10 | 0.10 | 71 | 1007.3 |
| 20260509002213 | 75 | 181 | 0.9 | 6.1 | 0.00 | 0.10 | 0.10 | 71 | 1007.4 |
| 20260509001711 | 75 | 171 | 3.5 | 7.8 | 0.00 | 0.10 | 0.10 | 71 | 1007.1 |
| 20260509001206 | 75 | 165 | 2.6 | 6.1 | 0.00 | 0.10 | 0.10 | 70 | 1007.3 |
| 20260509000705 | 75 | 154 | 5.2 | 7.8 | 0.00 | 0.10 | 0.10 | 70 | 1007.2 |
| 20260509000204 | 75 | 186 | 7.0 | 7.8 | 0.00 | 0.10 | 0.10 | 69 | 1007.4 |
| 20260508235658 | 76 | 156 | 2.6 | 7.0 | 0.00 | 0.10 | 0.10 | 69 | 1007.6 |
| 20260508235155 | 75 | 140 | 1.7 | 3.5 | 0.00 | 0.10 | 0.10 | 68 | 1007.9 |
| 20260508234653 | 76 | 172 | 4.3 | 5.2 | 0.00 | 0.10 | 0.10 | 68 | 1007.9 |
| 20260508234149 | 76 | 175 | 2.6 | 2.6 | 0.00 | 0.10 | 0.10 | 68 | 1008.0 |
| 20260508233648 | 76 | 171 | 1.7 | 5.2 | 0.00 | 0.10 | 0.10 | 68 | 1007.8 |
| 20260508233145 | 76 | 133 | 2.6 | 6.1 | 0.00 | 0.10 | 0.10 | 67 | 1008.0 |
| 20260508232642 | 76 | 191 | 0.9 | 7.0 | 0.00 | 0.10 | 0.10 | 67 | 1008.0 |
| 20260508232139 | 76 | 192 | 4.3 | 5.2 | 0.00 | 0.10 | 0.10 | 65 | 1007.9 |
| 20260508231637 | 77 | 158 | 2.6 | 3.5 | 0.00 | 0.10 | 0.10 | 65 | 1007.9 |
| 20260508231133 | 77 | 229 | 2.6 | 6.1 | 0.00 | 0.10 | 0.10 | 65 | 1008.1 |
| 20260508230630 | 77 | 126 | 3.5 | 6.1 | 0.00 | 0.10 | 0.10 | 65 | 1008.1 |
| 20260508230126 | 77 | 191 | 2.6 | 6.1 | 0.00 | 0.10 | 0.10 | 65 | 1008.0 |
| 20260508225625 | 77 | 201 | 0.9 | 7.8 | 0.00 | 0.10 | 0.10 | 64 | 1008.0 |
| 20260508225120 | 77 | 184 | 1.7 | 7.0 | 0.00 | 0.10 | 0.10 | 65 | 1008.0 |
| 20260508224619 | 77 | 211 | 1.7 | 2.6 | 0.00 | 0.10 | 0.10 | 65 | 1008.0 |
| 20260508224116 | 77 | 171 | 3.5 | 5.2 | 0.00 | 0.10 | 0.10 | 65 | 1007.9 |
| 20260508223614 | 77 | 197 | 3.5 | 6.1 | 0.00 | 0.10 | 0.10 | 65 | 1008.1 |
| 20260508223110 | 77 | 164 | 6.1 | 7.8 | 0.00 | 0.10 | 0.10 | 64 | 1007.9 |
| 20260508222608 | 77 | 179 | 5.2 | 7.0 | 0.00 | 0.10 | 0.10 | 63 | 1007.9 |
| 20260508222105 | 77 | 171 | 5.2 | 7.0 | 0.00 | 0.10 | 0.10 | 65 | 1008.1 |
| 20260508221601 | 77 | 199 | 4.3 | 7.8 | 0.00 | 0.10 | 0.10 | 63 | 1008.0 |
| 20260508221057 | 77 | 223 | 3.5 | 9.6 | 0.00 | 0.10 | 0.10 | 63 | 1008.0 |
| 20260508220553 | 78 | 205 | 4.3 | 7.8 | 0.00 | 0.10 | 0.10 | 62 | 1007.9 |
| 20260508220049 | 78 | 187 | 3.5 | 7.0 | 0.00 | 0.10 | 0.10 | 63 | 1007.9 |
| 20260508215547 | 78 | 162 | 3.5 | 8.7 | 0.00 | 0.10 | 0.10 | 63 | 1007.8 |
| 20260508215044 | 78 | 168 | 3.5 | 6.1 | 0.00 | 0.10 | 0.10 | 61 | 1007.9 |
| 20260508214541 | 78 | 180 | 2.6 | 7.8 | 0.00 | 0.10 | 0.10 | 62 | 1007.8 |
| 20260508214037 | 77 | 177 | 5.2 | 7.8 | 0.00 | 0.10 | 0.10 | 63 | 1008.0 |
| 20260508213535 | 77 | 146 | 4.3 | 7.0 | 0.00 | 0.10 | 0.10 | 63 | 1008.2 |
| 20260508213030 | 77 | 147 | 1.7 | 5.2 | 0.00 | 0.10 | 0.10 | 62 | 1008.3 |
| 20260508212527 | 77 | 176 | 2.6 | 6.1 | 0.00 | 0.10 | 0.10 | 63 | 1008.3 |
| 20260508212023 | 77 | 178 | 3.5 | 5.2 | 0.00 | 0.10 | 0.10 | 62 | 1008.5 |
| 20260508211519 | 77 | 178 | 2.6 | 6.1 | 0.00 | 0.10 | 0.10 | 63 | 1008.2 |
| 20260508211016 | 76 | 208 | 3.5 | 6.1 | 0.00 | 0.10 | 0.10 | 63 | 1008.2 |
| 20260508210512 | 76 | 192 | 3.5 | 7.0 | 0.00 | 0.10 | 0.10 | 64 | 1008.1 |
| 20260508210010 | 75 | 168 | 3.5 | 5.2 | 0.00 | 0.10 | 0.10 | 65 | 1008.4 |
| 20260508205507 | 75 | 160 | 3.5 | 6.1 | 0.00 | 0.10 | 0.10 | 66 | 1008.8 |
| 20260508205003 | 75 | 179 | 1.7 | 5.2 | 0.00 | 0.10 | 0.10 | 68 | 1009.1 |
| 20260508204500 | 74 | 155 | 3.5 | 3.5 | 0.00 | 0.10 | 0.10 | 70 | 1009.3 |
| 20260508203955 | 74 | 170 | 3.5 | 6.1 | 0.00 | 0.10 | 0.10 | 67 | 1009.5 |
| 20260508203451 | 74 | 184 | 2.6 | 5.2 | 0.00 | 0.10 | 0.10 | 66 | 1009.8 |
| 20260508202947 | 74 | 197 | 2.6 | 5.2 | 0.00 | 0.10 | 0.10 | 67 | 1010.1 |
| 20260508202445 | 74 | 161 | 5.2 | 7.8 | 0.00 | 0.10 | 0.10 | 66 | 1010.5 |
| 20260508201942 | 74 | 127 | 4.3 | 7.0 | 0.00 | 0.10 | 0.10 | 66 | 1010.3 |
| 20260508201438 | 75 | 214 | 4.3 | 6.1 | 0.00 | 0.10 | 0.10 | 65 | 1010.2 |
| 20260508200935 | 75 | 163 | 3.5 | 6.1 | 0.00 | 0.10 | 0.10 | 65 | 1010.4 |
| 20260508200432 | 75 | 189 | 2.6 | 6.1 | 0.00 | 0.10 | 0.10 | 65 | 1010.2 |
| 20260508195927 | 75 | 217 | 2.6 | 6.1 | 0.00 | 0.10 | 0.10 | 64 | 1010.3 |
| 20260508195425 | 76 | 189 | 2.6 | 2.6 | 0.00 | 0.10 | 0.10 | 63 | 1010.2 |
| 20260508194920 | 76 | 182 | 0.9 | 5.2 | 0.00 | 0.10 | 0.10 | 63 | 1010.3 |
| 20260508194418 | 76 | 207 | 2.6 | 2.6 | 0.00 | 0.10 | 0.10 | 63 | 1010.2 |
| 20260508193914 | 76 | 211 | 3.5 | 5.2 | 0.00 | 0.10 | 0.10 | 64 | 1010.2 |
| 20260508193411 | 76 | 189 | 7.0 | 7.8 | 0.00 | 0.10 | 0.10 | 64 | 1010.4 |
| 20260508192908 | 76 | 205 | 1.7 | 5.2 | 0.00 | 0.10 | 0.10 | 64 | 1010.2 |
| 20260508192405 | 76 | 232 | 3.5 | 6.1 | 0.00 | 0.10 | 0.10 | 64 | 1010.6 |
| 20260508191902 | 77 | 169 | 3.5 | 5.2 | 0.00 | 0.10 | 0.10 | 63 | 1010.3 |
| 20260508191359 | 77 | 197 | 1.7 | 6.1 | 0.00 | 0.10 | 0.10 | 63 | 1010.2 |
| 20260508190856 | 77 | 223 | 2.6 | 3.5 | 0.00 | 0.10 | 0.10 | 62 | 1010.4 |
| 20260508190353 | 78 | 187 | 3.5 | 5.2 | 0.00 | 0.10 | 0.10 | 61 | 1010.4 |
| 20260508185849 | 78 | 209 | 3.5 | 7.8 | 0.00 | 0.10 | 0.10 | 61 | 1010.5 |
| 20260508185347 | 79 | 191 | 3.5 | 3.5 | 0.00 | 0.10 | 0.10 | 59 | 1010.3 |
| 20260508184844 | 78 | 232 | 2.6 | 1.7 | 0.00 | 0.10 | 0.10 | 59 | 1010.4 |
| 20260508184341 | 78 | 207 | 4.3 | 7.0 | 0.00 | 0.10 | 0.10 | 60 | 1010.4 |
| 20260508183838 | 78 | 234 | 1.7 | 2.6 | 0.00 | 0.10 | 0.10 | 58 | 1010.7 |
| 20260508183334 | 77 | 187 | 2.6 | 5.2 | 0.00 | 0.10 | 0.10 | 60 | 1010.7 |
| 20260508182830 | 78 | 225 | 2.6 | 5.2 | 0.00 | 0.10 | 0.10 | 60 | 1010.7 |
| 20260508182327 | 78 | 152 | 3.5 | 6.1 | 0.00 | 0.10 | 0.10 | 60 | 1010.5 |
| 20260508181822 | 77 | 249 | 4.3 | 6.1 | 0.00 | 0.10 | 0.10 | 60 | 1011.0 |
| 20260508181320 | 77 | 177 | 3.5 | 3.5 | 0.00 | 0.10 | 0.10 | 61 | 1011.1 |
| 20260508180817 | 77 | 192 | 2.6 | 2.6 | 0.00 | 0.10 | 0.10 | 60 | 1011.2 |
| 20260508180314 | 77 | 125 | 5.2 | 7.0 | 0.00 | 0.10 | 0.10 | 60 | 1011.3 |
| 20260508175810 | 77 | 194 | 3.5 | 3.5 | 0.00 | 0.10 | 0.10 | 59 | 1011.3 |
| 20260508175306 | 77 | 191 | 4.3 | 6.1 | 0.00 | 0.10 | 0.10 | 60 | 1011.6 |
| 20260508174805 | 78 | 191 | 1.7 | 2.6 | 0.00 | 0.10 | 0.10 | 58 | 1011.5 |
| 20260508174302 | 76 | 180 | 4.3 | 6.1 | 0.00 | 0.10 | 0.10 | 60 | 1011.6 |
| 20260508173758 | 76 | 116 | 3.5 | 5.2 | 0.00 | 0.10 | 0.10 | 59 | 1011.5 |
| 20260508173254 | 76 | 173 | 6.1 | 7.0 | 0.00 | 0.10 | 0.10 | 60 | 1011.5 |
| 20260508172751 | 76 | 115 | 1.7 | 2.6 | 0.00 | 0.10 | 0.10 | 60 | 1011.7 |
| 20260508172248 | 76 | 189 | 1.7 | 5.2 | 0.00 | 0.10 | 0.10 | 60 | 1011.5 |
| 20260508171744 | 74 | 208 | 1.7 | 2.6 | 0.00 | 0.10 | 0.10 | 61 | 1011.8 |
| 20260508171240 | 75 | 147 | 4.3 | 7.8 | 0.00 | 0.10 | 0.10 | 60 | 1011.7 |
| 20260508170737 | 74 | 191 | 4.3 | 5.2 | 0.00 | 0.10 | 0.10 | 62 | 1012.1 |
| 20260508170235 | 74 | 176 | 0.9 | 5.2 | 0.00 | 0.10 | 0.10 | 61 | 1012.2 |
| 20260508165732 | 73 | 144 | 3.5 | 5.2 | 0.00 | 0.10 | 0.10 | 62 | 1012.6 |
| 20260508165229 | 73 | 164 | 3.5 | 3.5 | 0.00 | 0.10 | 0.10 | 61 | 1012.5 |
| 20260508164725 | 73 | 213 | 3.5 | 6.1 | 0.00 | 0.10 | 0.10 | 61 | 1012.4 |
| 20260508164222 | 73 | 173 | 3.5 | 5.2 | 0.00 | 0.10 | 0.10 | 61 | 1012.8 |
| 20260508163720 | 73 | 198 | 1.7 | 6.1 | 0.00 | 0.10 | 0.10 | 61 | 1012.9 |
| 20260508163217 | 72 | 51 | 2.6 | 2.6 | 0.00 | 0.10 | 0.10 | 62 | 1012.9 |
| 20260508162713 | 71 | 204 | 2.6 | 3.5 | 0.00 | 0.10 | 0.10 | 63 | 1013.2 |
| 20260508162210 | 71 | 184 | 0.9 | 5.2 | 0.00 | 0.10 | 0.10 | 64 | 1013.2 |
| 20260508161708 | 71 | 193 | 1.7 | 2.6 | 0.00 | 0.10 | 0.10 | 63 | 1013.0 |
| 20260508161205 | 71 | 200 | 4.3 | 5.2 | 0.00 | 0.10 | 0.10 | 62 | 1013.2 |
| 20260508160703 | 71 | 179 | 1.7 | 7.8 | 0.00 | 0.10 | 0.10 | 64 | 1013.4 |
| 20260508160200 | 70 | 185 | 1.7 | 7.8 | 0.00 | 0.10 | 0.10 | 65 | 1013.2 |
| 20260508155657 | 71 | 177 | 4.3 | 6.1 | 0.00 | 0.10 | 0.10 | 63 | 1013.4 |
| 20260508155154 | 69 | 146 | 2.6 | 3.5 | 0.00 | 0.10 | 0.10 | 65 | 1013.4 |
| 20260508154651 | 69 | 165 | 3.5 | 5.2 | 0.00 | 0.10 | 0.10 | 64 | 1013.4 |
| 20260508154148 | 69 | 175 | 3.5 | 6.1 | 0.00 | 0.10 | 0.10 | 65 | 1013.5 |
| 20260508153644 | 69 | 158 | 4.3 | 7.0 | 0.00 | 0.10 | 0.10 | 64 | 1013.7 |
| 20260508153141 | 69 | 151 | 2.6 | 6.1 | 0.00 | 0.10 | 0.10 | 65 | 1013.7 |
| 20260508152638 | 69 | 176 | 3.5 | 5.2 | 0.00 | 0.10 | 0.10 | 64 | 1013.8 |
| 20260508152133 | 68 | 195 | 2.6 | 6.1 | 0.00 | 0.10 | 0.10 | 64 | 1013.8 |
| 20260508151630 | 68 | 208 | 2.6 | 7.0 | 0.00 | 0.10 | 0.10 | 65 | 1013.8 |
| 20260508151127 | 69 | 169 | 3.5 | 5.2 | 0.00 | 0.10 | 0.10 | 64 | 1013.8 |
| 20260508150624 | 69 | 190 | 3.5 | 3.5 | 0.00 | 0.10 | 0.10 | 63 | 1013.7 |
| 20260508150121 | 68 | 164 | 1.7 | 3.5 | 0.00 | 0.10 | 0.10 | 66 | 1013.6 |
| 20260508145617 | 68 | 164 | 1.7 | 5.2 | 0.00 | 0.10 | 0.10 | 67 | 1013.8 |
| 20260508145113 | 68 | 166 | 1.7 | 2.6 | 0.00 | 0.10 | 0.10 | 68 | 1013.7 |
| 20260508144611 | 67 | 197 | 1.7 | 2.6 | 0.00 | 0.10 | 0.10 | 68 | 1013.9 |
| 20260508144108 | 67 | 189 | 2.6 | 3.5 | 0.00 | 0.10 | 0.10 | 69 | 1013.9 |
| 20260508143606 | 67 | 194 | 2.6 | 3.5 | 0.00 | 0.10 | 0.10 | 70 | 1014.0 |
| 20260508143102 | 66 | 176 | 1.7 | 2.6 | 0.00 | 0.10 | 0.10 | 69 | 1013.9 |
| 20260508142559 | 66 | 164 | 0.9 | 3.5 | 0.00 | 0.10 | 0.10 | 71 | 1014.1 |
| 20260508142055 | 66 | 193 | 2.6 | 5.2 | 0.00 | 0.10 | 0.10 | 71 | 1014.0 |
| 20260508141552 | 66 | 179 | 3.5 | 5.2 | 0.00 | 0.10 | 0.10 | 70 | 1013.9 |
| 20260508141050 | 67 | 173 | 2.6 | 3.5 | 0.00 | 0.10 | 0.10 | 70 | 1014.1 |
| 20260508140547 | 67 | 156 | 2.6 | 5.2 | 0.00 | 0.10 | 0.10 | 70 | 1014.0 |
| 20260508140043 | 66 | 189 | 0.0 | 3.5 | 0.00 | 0.10 | 0.10 | 72 | 1014.2 |
| 20260508135539 | 66 | 196 | 1.7 | 2.6 | 0.00 | 0.10 | 0.10 | 70 | 1014.2 |
| 20260508135035 | 66 | 207 | 2.6 | 3.5 | 0.00 | 0.10 | 0.10 | 71 | 1014.2 |
| 20260508134532 | 65 | 184 | 2.6 | 6.1 | 0.00 | 0.10 | 0.10 | 73 | 1014.1 |
| 20260508134029 | 66 | 193 | 1.7 | 6.1 | 0.00 | 0.10 | 0.10 | 74 | 1013.8 |
| 20260508133526 | 65 | 167 | 0.9 | 2.6 | 0.00 | 0.10 | 0.10 | 77 | 1013.7 |
| 20260508133023 | 65 | 183 | 1.7 | 3.5 | 0.00 | 0.10 | 0.10 | 77 | 1013.8 |
| 20260508132521 | 65 | 209 | 2.6 | 2.6 | 0.00 | 0.10 | 0.10 | 78 | 1014.0 |
| 20260508132018 | 0 | 201 | 1.7 | 1.7 | 0.00 | 0.10 | 0.10 | 1014.0 | |
| 20260508131513 | 63 | 144 | 1.7 | 1.7 | 0.00 | 0.10 | 0.10 | 81 | 1014.1 |
| 20260508131010 | 63 | 157 | 0.9 | 1.7 | 0.00 | 0.10 | 0.10 | 84 | 1013.9 |
| 20260508130507 | 62 | 192 | 1.7 | 1.7 | 0.00 | 0.10 | 0.10 | 86 | 1014.1 |
| 20260508130003 | 62 | 224 | 0.0 | 0.0 | 0.00 | 0.10 | 0.10 | 87 | 1014.2 |
| 20260508125459 | 62 | 212 | 0.0 | 0.0 | 0.00 | 0.10 | 0.10 | 87 | 1014.1 |
| 20260508124957 | 62 | 186 | 1.7 | 2.6 | 0.00 | 0.10 | 0.10 | 88 | 1014.0 |
| 20260508124454 | 62 | 196 | 0.0 | 0.9 | 0.00 | 0.10 | 0.10 | 89 | 1014.0 |
| 20260508123951 | 62 | 213 | 0.0 | 0.0 | 0.07 | 0.10 | 0.10 | 88 | 1014.3 |
| 20260508123450 | 61 | 213 | 0.0 | 0.9 | 0.07 | 0.10 | 0.10 | 87 | 1014.4 |
| 20260508122946 | 61 | 204 | 0.9 | 0.9 | 0.00 | 0.09 | 0.09 | 88 | 1014.2 |
| 20260508122443 | 61 | 167 | 0.0 | 0.9 | 0.00 | 0.09 | 0.09 | 87 | 1013.9 |
| 20260508121940 | 62 | 228 | 0.0 | 0.0 | 0.12 | 0.09 | 0.09 | 85 | 1014.9 |
| 20260508121438 | 62 | 203 | 0.0 | 1.7 | 0.17 | 0.09 | 0.09 | 83 | 1014.7 |
| 20260508120936 | 63 | 194 | 0.9 | 5.2 | 0.00 | 0.06 | 0.06 | 80 | 1014.3 |
| 20260508120433 | 63 | 176 | 1.7 | 3.5 | 0.00 | 0.06 | 0.06 | 81 | 1013.9 |
| 20260508115931 | 63 | 157 | 3.5 | 3.5 | 0.00 | 0.06 | 0.06 | 81 | 1014.2 |
| 20260508115429 | 63 | 209 | 1.7 | 2.6 | 0.00 | 0.06 | 0.06 | 83 | 1014.3 |
| 20260508114925 | 63 | 205 | 0.9 | 2.6 | 0.00 | 0.06 | 0.06 | 85 | 1014.2 |
| 20260508114422 | 62 | 182 | 1.7 | 1.7 | 0.00 | 0.06 | 0.06 | 85 | 1014.3 |
| 20260508113918 | 62 | 203 | 1.7 | 1.7 | 0.00 | 0.06 | 0.06 | 85 | 1014.5 |
| 20260508113417 | 62 | 172 | 0.9 | 1.7 | 0.00 | 0.06 | 0.06 | 88 | 1014.4 |